Overview Statistics Trail Chart Weather Telemetry Raw packets
 

This is the latest recevied weather packets stored in our database for station/object HOWARD. If no packets are shown the sender has not sent any weather packets the latest 10 day(s).

<< 25 26 27 28 29 30 31 >>
Time Temp. Humidity Pressure Rain* Wind** Luminosity Snow
1788286483 10.56° C 68% 1012.5 hPa 0 mm - - -
1788285883 10° C 68% 1012.3 hPa 0 mm - - -
1788285283 11.11° C 61% 1012.5 hPa 0 mm - - -
1788284683 11.67° C 58% 1012.2 hPa 0 mm - - -
1788284083 11.11° C 60% 1011.7 hPa 0 mm - - -
1788283483 11.11° C 60% 1011.5 hPa 0 mm - - -
1788282883 11.11° C 60% 1010.7 hPa 0 mm - - -
1788282283 11.11° C 59% 1010.9 hPa 0 mm - - -
1788281683 11.11° C 57% 1011 hPa 0 mm - - -
1788281083 11.67° C 54% 1010.6 hPa 0 mm - - -
1788280483 12.22° C 50% 1010.8 hPa 0 mm - - -
1788279883 12.78° C 46% 1011 hPa 0 mm - - -
1788279283 12.78° C 48% 1011 hPa 0 mm - - -
1788278683 12.78° C 48% 1010.6 hPa 0 mm - - -
1788278083 12.78° C 46% 1010.7 hPa 0 mm - - -
1788277483 12.78° C 45% 1010.7 hPa 0 mm - - -
1788276884 13.89° C 45% 1010.9 hPa 0 mm - - -
1788276283 13.33° C 45% 1010.9 hPa 0 mm - - -
1788275683 13.33° C 46% 1011.1 hPa 0 mm - - -
1788275083 13.89° C 45% 1011.3 hPa 0 mm - - -
1788274483 13.89° C 45% 1011.2 hPa 0 mm - - -
1788273883 13.89° C 45% 1011.2 hPa 0 mm - - -
1788273283 14.44° C 44% 1011.2 hPa 0 mm - - -
1788272683 13.89° C 46% 1011.2 hPa 0 mm - - -
1788272083 13.89° C 46% 1011.2 hPa 0 mm - - -

* Rain latest hour (hover to see other rain measurements)
** Current wind speed in m/s (hover to see current wind gust speed)